Flag for U.S.A. Weather past 2 weeks in Jackson, Mississippi, U.S.A.

Now
92 °F

Sunny.


Feels Like: 91 °F
Forecast: 67 / 92 °F
Wind: 6 mph from Northeast

Location: Hawkins Field

Current Time: Aug 27, 2014 at 6:33:13 PM

Latest Report: Aug 27, 2014 at 5:53 PM


Visibility: 9 mi

Pressure: 29.99 "Hg

Humidity: 33%

Dew point: 59 °F

Location of JacksonLocation

Historic Weather in Jackson — Graph

°F

Jackson temperature yesterday

Maximum temperature yesterday: 90 °F (at 2:53 PM)
Minimum temperature yesterday: 74 °F (at 6:53 AM)
Average temperature yesterday: 82 °F

Past Weeks' High & Low Weather Summary

 TemperatureHumidityPressure
High95 °F (Aug 23, 2:53 PM)91% (Aug 14, 4:53 AM)30.13 "Hg (Aug 14, 4:53 AM)
Low64 °F (Aug 14, 5:53 AM)33% (Aug 27, 3:53 PM)29.87 "Hg (Aug 19, 1:53 AM)
Average81 °F68%29.99 "Hg
* Reported Aug 12 4:53 PM — Aug 27 4:53 PM, Jackson, Weather by CustomWeather, © 2014

Note: Actual official high and low records may vary slightly from our data, if they occured in-between our weather recording intervals... More about our weather records

Advertising

Jackson weather history for previous 24 hours

 ConditionsComfort  
Time TempWeatherWind HumidityBarometerVisibility
4:53 PM
Aug 27
92 °FSunny.8 mph35%30.00 "Hg10 mi
3:53 PM93 °FSunny.3 mph33%30.02 "Hg10 mi
2:53 PM93 °FSunny.9 mph36%30.03 "Hg10 mi
1:53 PM92 °FHot.6 mph38%30.05 "Hg10 mi
12:53 PM91 °FPartly sunny.8 mph39%30.07 "Hg10 mi
11:53 AM90 °FPassing clouds.12 mph41%30.08 "Hg10 mi
8:53 AM81 °FPartly sunny.5 mph62%30.05 "Hg10 mi
7:53 AM76 °FSunny.5 mph74%30.04 "Hg10 mi
6:53 AM72 °FClear.3 mph78%30.02 "Hg10 mi
5:53 AM72 °FClear.No wind81%30.01 "Hg10 mi
4:53 AM73 °FPassing clouds.No wind79%30.01 "Hg10 mi
3:53 AM73 °FPassing clouds.No wind79%30.01 "Hg10 mi
2:53 AM73 °FPassing clouds.No wind79%30.01 "Hg10 mi
1:53 AM72 °FClear.No wind81%30.00 "Hg10 mi
12:53 AM73 °FClear.No wind79%30.00 "Hg9 mi
11:53 PM
Aug 26
74 °FClear.No wind76%29.99 "Hg10 mi
10:53 PM74 °FClear.No wind76%30.00 "Hg10 mi
9:53 PM77 °FClear.No wind66%30.00 "Hg7 mi
8:53 PM79 °FClear.No wind60%30.00 "Hg10 mi
7:53 PM83 °FSunny.5 mph48%29.98 "Hg10 mi
6:53 PM87 °FSunny.8 mph40%29.97 "Hg10 mi
Weather by CustomWeather, © 2014

See weather overviewHow to use our weather pages